{"data":{"norad_id":58800,"epoch":"2026-09-20T01:07:33.430080Z","epoch_age_seconds":191714,"freshness":"STALE","line1":"1 58800U 24012P   26263.04691470  .00002508  00000+0  10058-3 0  9991","line2":"2 58800  43.0002 147.3376 0000656 271.3902  88.6874 15.27596695150961","mean_motion":15.27596695,"eccentricity":6.56e-5,"inclination_deg":43.0002,"raan_deg":147.3376,"arg_perigee_deg":271.3902,"mean_anomaly_deg":88.6874,"bstar":0.00010058,"rev_number":15096,"period_min":94.26571847879,"perigee_km":482.54901513042,"apogee_km":483.44919618748,"semimajor_km":6861.1361056589,"source":"CELESTRAK","updated_at":"2026-09-21T09:00:33.980976Z"}}